Location: Finney State Fishing Lake and Wildlife Area
(38.1834°N, 100.3310°W)
Time: 13:04:21
(UTC+00:00)

N. Korean satellite - Visible Passes

Search period start: 30 November 2022 00:00
Search period end: 10 December 2022 00:00
Orbit: 421 x 454 km, 97.3° (Epoch: 29 November)

Date Brightness Start Highest point End Pass type
(mag) Time Alt. Az. Time Alt. Az. Time Alt. Az.
30 Nov 6.7 12:21:12 10° N 12:24:27 42° WNW 12:27:39 10° SW visible
01 Dec 7.4 11:42:26 10° NNE 11:45:45 48° E 11:49:00 10° S visible
02 Dec 9.6 11:04:56 10° ENE 11:06:48 14° E 11:08:39 10° SE visible
02 Dec 7.4 12:36:26 10° NNW 12:39:19 26° WNW 12:42:11 10° SW visible
03 Dec 6.4 11:57:13 10° NNE 12:00:38 82° ESE 12:03:59 10° S visible
03 Dec 9.4 23:57:56 10° SW 00:00:30 21° W 00:03:09 10° NW visible
04 Dec 9.0 11:19:00 10° NE 11:21:41 22° E 11:24:21 10° SSE visible
04 Dec 7.9 12:51:44 10° NNW 12:54:01 17° WNW 12:56:17 10° WSW visible
05 Dec 6.3 12:11:59 10° N 12:15:21 58° WNW 12:18:38 10° SSW visible
06 Dec 9.8 00:13:33 10° SW 00:15:18 13° W 00:17:03 10° WNW visible
06 Dec 8.1 11:33:17 10° NNE 11:36:24 34° E 11:39:29 10° SSE visible
06 Dec 8.3 13:07:26 10° NW 13:08:32 11° WNW 13:09:37 10° W visible
07 Dec 10.0 10:56:54 10° E 10:57:14 10° E 10:57:33 10° E visible
07 Dec 6.9 12:26:45 10° N 12:29:52 35° WNW 12:32:56 10° SW visible
08 Dec 7.0 11:47:37 10° NNE 11:50:57 56° E 11:54:13 10° S visible
08 Dec 8.8 23:47:44 10° SSW 23:50:42 28° W 23:53:41 10° NW visible
09 Dec 9.4 11:09:38 10° NE 11:11:46 16° E 11:13:52 10° SE visible
09 Dec 7.5 12:41:32 10° NNW 12:44:13 23° WNW 12:46:53 10° SW visible
